Regional Weather Roundup
Issued by NWS Grand Forks, ND

Home | Current Version | Previous Version | Graphics & Text | Print | Product List | Glossary On
Versions: 1 2 3 4 5 6 7 8 9 10 11 12 13 14 15 16 17 18 19 20 21 22 23 24 25 26 27 28 29 30 31 32 33 34 35 36 37 38 39 40 41 42 43 44 45 46 47 48 49 50
000
ASUS43 KFGF 222210
RWRFGF
PRAIRIE TO PINES  WEATHER ROUNDUP
NATIONAL WEATHER SERVICE EASTERN NORTH DAKOTA/GRAND FORKS ND
500 PM CDT WED OCT 22 2014

 **SATELLITE DATA USED TO AUGMENT SKY COVER AT AUTOMATED STATIONS**
 *****  WEATHER ACROSS EASTERN NORTH DAKOTA  *****

CITY           SKY/WX    TMP DP  RH WIND       PRES   REMARKS
GRAND FORKS    LGT RAIN  58  52  80 SW9       29.81R
GRAND FRKS AFB CLOUDY    57  57  99 SW8       29.81S
GRAND FRKS NWS   N/A     57 N/A N/A SW15        N/A
DEVILS LAKE    CLOUDY    55  46  71 S13       29.77S
FARGO          CLOUDY    60  51  72 SW15      29.85R
WAHPETON ARPT  CLOUDY    57  50  77 W8        29.87R
$$

 ***** WEATHER ACROSS CENTRAL AND WESTERN NORTH DAKOTA  *****

CITY           SKY/WX    TMP DP  RH WIND       PRES   REMARKS
BISMARCK       SUNNY     69  38  32 W17       29.84S
MINOT          CLOUDY    62  40  44 W16G25    29.78R
JAMESTOWN      CLOUDY    56  51  84 SW6       29.85R
MINOT AFB      PTSUNNY   60  43  52 W20G31    29.76R
GARRISON         N/A     63  40  42 W20G28    29.80S
WILLISTON      SUNNY     63  39  41 W17G25    29.81R
DICKINSON      SUNNY     62  34  35 W18G29    29.86R
HETTINGER      SUNNY     63  31  30 W20G28    29.92S
$$

 *****  OTHER AIRPORT OBSERVATIONS IN OUR AREA  *****

CITY           SKY/WX    TMP DP  RH WIND       PRES   REMARKS
WALHALLA         N/A     55  55 100 SW7       29.75F
GRAFTON AIRPOR LGT RAIN  55  54  94 SW10      29.79R
VALLEY CITY AR LGT RAIN  54  54 100 W10       29.86R
CANDO          FAIR      59  45  58 W9        29.77S
CAVALIER APRT  LGT RAIN  57  52  82 S7        29.76R
GWINNER        PTCLDY    57  57 100 SW7       29.88S
SHEYENNE NWR     N/A     56  55  95 SW3       29.95S
ROLLA          FAIR      59  45  58 SW15G21   29.75S
 ***** THE ABOVE OBSERVATIONS ARE NON NWS ARE NOT QUALITY
       CONTROLLED AND MAY MIS-REPORT RAIN FOR SNOW...
$$

  *****  WEATHER ACROSS NORTHERN MINNESOTA  *****

CITY           SKY/WX    TMP DP  RH WIND       PRES   REMARKS
FLAG ISLAND    PTSUNNY   54  46  76 S20       29.82S
WARROAD        CLOUDY    61  48  63 S12G17    29.84R
ROSEAU         CLOUDY    63  48  59 S16       29.83R
HALLOCK        CLOUDY    61  48  63 S17       29.78S
THF RVR FALLS  CLOUDY    63  46  55 S18       29.83S
BAUDETTE       PTSUNNY   59  43  55 S10G24    29.87R
WASKISH        PTSUNNY   59  45  58 S12G21    29.90S
CROOKSTON      CLOUDY    63  46  55 S17G24    29.83S
STEPHEN NDAWN    N/A     63  48  59 SW16        N/A
GREENBUSH NDAW   N/A     63  46  55 S15         N/A
$$
  *****  WEATHER ACROSS CENTRAL AND WEST MINNESOTA  *****

CITY           SKY/WX    TMP DP  RH WIND       PRES   REMARKS
FOSSTON        CLOUDY    59  45  58 S14       29.86S
BEMIDJI        CLOUDY    58  44  59 S14       29.90S
PARK RAPIDS    CLOUDY    59  43  55 S20G25    29.92S
ELBOW LAKE     CLOUDY    64  48  54 S17       29.89S
WADENA         CLOUDY    61  45  55 SE9       29.92F
DETROIT LAKES  CLOUDY    61  45  55 S21G28    29.88F
MOORHEAD       CLOUDY    63  52  67 SW16      29.86R
FERGUS FALLS   LGT RAIN  64  46  52 S15       29.88S
MORRIS MN      PTSUNNY   66  48  52 S13       29.89S
STAPLES        PTSUNNY   57  43  58 SE9G20    29.95R
$$
  *****  WEATHER ELSEWHERE ACROSS MINNESOTA  *****

CITY           SKY/WX    TMP DP  RH WIND       PRES   REMARKS
DULUTH         MOSUNNY   52  40  63 SE10      30.04F
INTRNTL FALLS  PTCLDY    61  43  51 S8G20     29.91S
ELY            NOT AVBL
CLOQUET        PTSUNNY   55  37  50 SE9       30.03F
WHEATON        RAIN      59  54  82 W10G21    29.90R
BRAINERD       PTSUNNY   56  42  59 S15G23    29.98F
HIBBING        MOSUNNY   58  39  49 S15G24    30.00F
ALEXANDRIA     CLOUDY    63  46  54 SE20      29.93F
SAINT CLOUD    MOSUNNY   63  43  48 S16G26    29.99F
MINNEAPOLIS    PTSUNNY   58  42  55 SE14G24   30.06F
$$

  *****  WEATHER ACROSS SOUTH DAKOTA  *****

CITY           SKY/WX    TMP DP  RH WIND       PRES   REMARKS
SIOUX FALLS    RAIN      58  56  93 S5        29.95R FOG
BROOKINGS      NOT AVBL
WATERTOWN      CLOUDY    55  53  93 S3        29.91S
HURON          CLOUDY    57  53  86 W8        29.94S
SISSETON         N/A     57  55  93 S3        29.87F
ABERDEEN       CLOUDY    57  53  86 W10       29.91R
MITCHELL       CLOUDY    58  55  90 W10       29.96R
PIERRE         SUNNY     64  41  42 W6        29.93S
MOBRIDGE       MOSUNNY   67  42  40 W6        29.88S
RAPID CITY     SUNNY     64  35  34 SE7       29.99S
$$

  *****  SOME WEATHER IN NEARBY STATES *****

CITY           SKY/WX    TMP DP  RH WIND       PRES   REMARKS
GLASGOW MT     SUNNY     63  31  30 W16       29.84S
GREAT FALLS MT SUNNY     59  32  36 SW26G33   29.86F
CHEYENNE WY    PTSUNNY   62  28  27 W14G22    30.09R
SCOTTSBLUFF NE MOSUNNY   67  28  23 NW12      30.02F
OMAHA NE       PTSUNNY   74  54  49 SE20      29.99S
DES MOINES IA  PTSUNNY   65  46  50 S18       30.10F
DAVENPORT IA   SUNNY     60  37  42 SE10      30.22F
CHICAGO IL     CLEAR     51  37  58 E10       30.28F
EAU CLAIRE WI  MOSUNNY   59  32  36 S13       30.14F
LA CROSSE WI   SUNNY     60  37  42 S12       30.17F
$$

  *****  SOME NATIONAL WEATHER *****

CITY           SKY/WX    TMP DP  RH WIND       PRES   REMARKS
LA GUARDIA NY  RAIN      53  50  89 N14       29.82F
RALEIGH NC     PTCLDY    62  41  46 NW10      29.98R
ATLANTA GA     SUNNY     68  42  38 NW13      30.06R
NEW ORLEANS LA SUNNY     79  51  37 NE6       30.02S
OKLAHOMA CITY  PTSUNNY   76  57  51 S12       30.08S
ALBUQUERQUE NM PTSUNNY   71  40  32 VRB3      30.14S
SALT LAKE CITY PTSUNNY   62  32  32 N7        30.16S
LOS ANGELES CA MOSUNNY   73  61  65 W13       29.90F
BOISE ID       PTSUNNY   63  28  26 SE14      30.05F
SEATTLE WA     LGT RAIN  57  54  89 SE9       29.65F
$$

*** WEATHER ACROSS MANITOBA...SASKATCHEWAN AND ONTARIO ***
                ***ONTARIO***

CITY           SKY/WX    TMP DP  RH WIND       PRES   REMARKS
GERALDTON      PTCLDY    45  34  65 S12       30.18F
THUNDER BAY    NOT AVBL
SIOUX LOOKOUT  NOT AVBL
TORONTO        PTCLDY    52  39  62 N15       30.23S
BIG TROUT LK   CLEAR     57  41  54 S15G23    29.79F
PICKLE LAKE    PTCLDY    57  36  44 S17G23    29.94F
DRYDEN         NOT AVBL
KENORA         MOCLDY    59  45  58 S18G25    29.83R
$$
                *** MANITOBA***

CITY           SKY/WX    TMP DP  RH WIND       PRES   REMARKS
BRANDON        PTSUNNY   61  46  59 SW16      29.68R
DAUPHIN        SUNNY     66  48  52 SW9       29.60S
ISLAND LAKE    NOT AVBL
PILOT MOUND      N/A     59  45  58 SW16        N/A
THE PAS        PTSUNNY   52  45  76 N5        29.61R
THOMPSON       CLOUDY    50  43  76 NE3       29.66R
WINNIPEG       CLOUDY    63  48  59 S18G26    29.72S
LYNN LAKE      MOCLDY    43  41  93 N9        29.69R
CHURCHILL      LGT RAIN  37  37 100 NE8       29.79
$$
                ***SASKATCHEWAN***

CITY           SKY/WX    TMP DP  RH WIND       PRES   REMARKS
ESTEVAN        PTSUNNY   54  46  76 W10       29.77R
KINDERSLEY     NOT AVBL
LLOYDMINSTER   MOSUNNY   59  28  31 S9        29.67F
PRINCE ALBERT  LGT RAIN  48  48 100 SW2       29.70R
REGINA         PTSUNNY   54  48  82 NW10      29.75S
YORKTON        PTSUNNY   55  46  71 W13       29.66R
N. BATTLEFORD  SUNNY     59  37  44 NW5       29.72F
LA RONGE       NOT AVBL
SASKATOON      PTSUNNY   57  45  62 NW6       29.73S
SWIFT CURRENT  SUNNY     59  36  41 W14G20    29.76S
$$
NOTE: THESE ARE AUTOMATED STATIONS WITH LIMITED QUALITY CONTROL
      "FAIR" INDICATES FEW OR NO CLOUDS BELOW 12,000 FEET WITH NO
      SIGNIFICANT WEATHER AND/OR OBSTRUCTIONS TO VISIBILITY.
      SKY/WX - SKY CONDITION AND SIGNIFICANT WEATHER.
      TMP - AIR TEMPERATURE.    DP   - DEWPOINT TEMPERATURE.
      RH  - RELATIVE HUMIDITY.  PRES - PRESSURE.
      HX  - HEAT INDEX.         WCI  - WIND CHILL INDEX.
$



USA.gov is the U.S. government's official web portal to all federal, state and local government web resources and services.